This demonstration page uses our WeatherBlox Daily Observations layout. Learn more.

Left ArrowRight Arrow

53.62937, 11.41316

Hourly Observations for July 17, 2022

Temp ( °F °C ) Dew Point ( °F °C ) Humidity (%) Winds ( mph kmh ) Pressure ( in mb ) Visibility ( mi km ) Precip ( " mm )
12:20 am 00:20 Partly Cloudy 54 12 46 8 77 77 W 5 7 30.27 1025 30 48 N/A
12:50 am 00:50 Partly Cloudy 54 12 46 8 77 77 W 3 6 30.27 1025 30 48 N/A
1:20 am 01:20 Cloudy 54 12 48 9 82 82 VRB 2 4 30.27 1025 30 48 N/A
1:50 am 01:50 Mostly Cloudy 52 11 48 9 88 88 WSW 3 6 30.27 1025 30 48 N/A
2:20 am 02:20 Partly Cloudy 52 11 48 9 88 88 VRB 2 4 30.27 1025 30 48 N/A
2:50 am 02:50 Mostly Cloudy 52 11 48 9 88 88 W 5 7 30.27 1025 30 48 N/A
3:20 am 03:20 Mostly Clear 52 11 48 9 88 88 WSW 3 6 30.27 1025 30 48 N/A
3:50 am 03:50 Mostly Clear 50 10 48 9 94 94 VRB 3 6 30.27 1025 30 48 N/A
4:20 am 04:20 Mostly Clear 50 10 46 8 88 88 VRB 3 6 30.27 1025 30 48 N/A
4:50 am 04:50 Mostly Clear 50 10 46 8 88 88 WSW 3 6 30.27 1025 30 48 N/A
5:20 am 05:20 Mostly Cloudy 50 10 46 8 88 88 WSW 3 6 30.27 1025 30 48 N/A
5:50 am 05:50 Cloudy 50 10 48 9 94 94 VRB 2 4 30.27 1025 30 48 N/A
6:20 am 06:20 Mostly Cloudy 52 11 50 10 94 94 W 5 7 30.27 1025 30 48 N/A
6:50 am 06:50 Mostly Cloudy 54 12 50 10 88 88 W 3 6 30.27 1025 30 48 N/A
7:20 am 07:20 Mostly Cloudy 55 13 50 10 82 82 W 3 6 30.27 1025 30 48 N/A
7:50 am 07:50 Partly Cloudy 55 13 50 10 82 82 W 3 6 30.30 1026 30 48 N/A
8:20 am 08:20 Mostly Cloudy 57 14 50 10 77 77 W 5 7 30.30 1026 30 48 N/A
8:50 am 08:50 Mostly Cloudy 57 14 50 10 77 77 W 5 7 30.30 1026 30 48 N/A
9:20 am 09:20 Mostly Cloudy 61 16 52 11 72 72 WNW 8 13 30.30 1026 30 48 N/A
9:50 am 09:50 Partly Cloudy 63 17 52 11 68 68 NW 9 15 30.30 1026 30 48 N/A
10:20 am 10:20 Partly Cloudy 61 16 50 10 68 68 WNW 9 15 30.30 1026 30 48 N/A
10:50 am 10:50 Partly Cloudy 64 18 52 11 64 64 NW 8 13 30.30 1026 30 48 N/A
11:20 am 11:20 Mostly Sunny 66 19 48 9 52 52 WNW 8 13 30.33 1027 30 48 N/A
11:50 am 11:50 Mostly Sunny 66 19 48 9 52 52 WNW 8 13 30.30 1026 30 48 N/A
12:20 pm 12:20 Mostly Sunny 66 19 48 9 52 52 WNW 9 15 30.30 1026 30 48 N/A
12:50 pm 12:50 Mostly Sunny 68 20 48 9 49 49 WNW 8 13 30.30 1026 30 48 N/A
1:20 pm 13:20 Mostly Sunny 70 21 48 9 46 46 W 9 15 30.30 1026 7 11 N/A
1:50 pm 13:50 Mostly Sunny 70 21 48 9 46 46 W 9 15 30.30 1026 7 11 N/A
2:20 pm 14:20 Mostly Sunny 70 21 48 9 46 46 WNW 9 15 30.30 1026 7 11 N/A
2:50 pm 14:50 Mostly Sunny 72 22 48 9 44 44 WNW 10 17 30.30 1026 7 11 N/A
3:20 pm 15:20 Mostly Sunny 72 22 50 10 47 47 W 9 15 30.30 1026 7 11 N/A
3:50 pm 15:50 Mostly Sunny 73 23 52 11 47 47 WNW 12 19 30.30 1026 7 11 N/A
4:20 pm 16:20 Mostly Sunny 72 22 48 9 44 44 NW 12 19 30.30 1026 30 48 N/A
4:50 pm 16:50 Mostly Sunny 73 23 52 11 47 47 NW 9 15 30.30 1026 7 11 N/A
5:20 pm 17:20 Mostly Sunny 73 23 52 11 47 47 WNW 9 15 30.27 1025 7 11 N/A
5:50 pm 17:50 Mostly Sunny 72 22 52 11 50 50 W 9 15 30.27 1025 7 11 N/A
6:20 pm 18:20 Mostly Sunny 72 22 52 11 50 50 W 9 15 30.27 1025 7 11 N/A
6:50 pm 18:50 Mostly Sunny 72 22 54 12 53 53 WNW 8 13 30.27 1025 30 48 N/A
7:20 pm 19:20 Mostly Sunny 70 21 52 11 53 53 WNW 8 13 30.27 1025 30 48 N/A
7:50 pm 19:50 Mostly Sunny 70 21 52 11 53 53 WNW 6 9 30.27 1025 30 48 N/A
8:20 pm 20:20 Mostly Sunny 68 20 54 12 60 60 NW 7 11 30.27 1025 7 11 N/A
8:50 pm 20:50 Mostly Sunny 66 19 54 12 64 64 W 6 9 30.27 1025 7 11 N/A
9:20 pm 21:20 Mostly Sunny 66 19 54 12 64 64 W 6 9 30.27 1025 30 48 N/A
9:50 pm 21:50 Mostly Clear 64 18 54 12 68 68 W 5 7 30.27 1025 30 48 N/A
10:20 pm 22:20 Mostly Cloudy 64 18 54 12 68 68 WNW 5 7 30.27 1025 30 48 N/A
10:50 pm 22:50 Cloudy 63 17 54 12 73 73 W 3 6 30.27 1025 30 48 N/A
11:20 pm 23:20 Partly Cloudy 61 16 54 12 77 77 W 3 6 30.27 1025 30 48 N/A
11:50 pm 23:50 Mostly Clear 59 15 54 12 82 82 VRB 1 2 30.27 1025 30 48 N/A

Powered by AerisWeather